Jendouba, Tunisia

7:32 AM CET on October 22, 2019 (GMT +0100)
Jendouba

Weather History for DTTN - August, 2019

Change the Weather History Date:

Wednesday, August 14, 2019

  Actual Average Record
Temperature  
Mean Temperature 78 °F -  
Max Temperature 86 °F 93 °F - ()
Min Temperature 70 °F 64 °F - ()
Cooling Degree Days 13    
Growing Degree Days 28 (Base 50)    
Moisture  
Dew Point 62 °F    
Average Humidity 59    
Maximum Humidity 83    
Minimum Humidity 26    
Precipitation  
Precipitation 0.00 in 0.03 in - ()
Sea Level Pressure  
Sea Level Pressure 30.04 in    
Wind  
Wind Speed 7 mph ()    
Max Wind Speed 14 mph    
Max Gust Speed -    
Visibility 6.3 miles    
Events Rain , Thunderstorm    
T = Trace of Precipitation, MM = Missing Value Source: Averaged Metar Reports

Daily Weather History Graph

Daily Weather History Graph

Search for Another Location

Airport or City:

Astronomy

Aug. 14, 2019 Rise Set
Actual Time 5:41 AM CET 7:17 PM CET
Civil Twilight 5:13 AM CET 7:44 PM CET
Nautical Twilight 4:40 AM CET 8:17 PM CET
Astronomical Twilight 4:05 AM CET 8:52 PM CET
Moon 6:58 PM CET (8/14) 4:26 AM CET (8/14)
Length of Visible Light 14h 30m
Length of Day
13h 35m
Waxing Gibbous, 99% of the Moon is Illuminated
Aug 14
Waxing Gibbous
Aug 15
Full
Aug 23
Last Quarter
Aug 30
New
Sep 6
First Quarter

Hourly Weather History & Observations

Time (CET) Temp. Heat Index Dew Point Humidity Pressure Visibility Wind Dir Wind Speed Gust Speed Precip Events Conditions
12:00 AM 77.0 °F - 68.0 °F 74% 30.04 in 5.0 mi NNW 9.2 mph - N/A Rain , Thunderstorm Rain Showers
1:00 AM 74 °F - 65 °F 68% 30.00 in 5 mi WNW 6.9 mph - - Rain , Thunderstorm Thunderstorms and Rain
1:00 AM 75.2 °F - 66.2 °F 73% 30.01 in 5.0 mi WNW 6.9 mph - N/A Rain , Thunderstorm Rain Showers
2:00 AM 71.6 °F - 66.2 °F 83% 30.01 in 5.0 mi North 9.2 mph - N/A Rain , Thunderstorm Rain Showers
3:00 AM 71.6 °F - 66.2 °F 83% 30.01 in 5.0 mi NW 9.2 mph - N/A   Scattered Clouds
4:00 AM 71 °F - 65 °F 76% 30.01 in 5 mi NNW 4.6 mph - - Thunderstorm Light Thunderstorm
4:00 AM 71.6 °F - 64.4 °F 78% 30.01 in 5.0 mi NNW 4.6 mph - N/A   Scattered Clouds
5:00 AM 73.4 °F - 64.4 °F 73% 30.01 in - West 6.9 mph - N/A   Scattered Clouds
6:00 AM 73.4 °F - 64.4 °F 73% 30.01 in 6.2 mi WSW 4.6 mph - N/A   Scattered Clouds
7:00 AM 72 °F - 66 °F 75% 30.04 in 9 mi SSW 2.3 mph - -   Partly Cloudy
7:00 AM 71.6 °F - 64.4 °F 78% 30.04 in 6.2 mi SSW 2.3 mph - N/A   Scattered Clouds
8:00 AM 77.0 °F - 64.4 °F 65% 30.04 in 6.2 mi WSW 4.6 mph - N/A   Scattered Clouds
9:00 AM 77.0 °F - 66.2 °F 69% 30.06 in 6.2 mi NNW 10.4 mph - N/A   Scattered Clouds
10:00 AM 79 °F - 65 °F 52% 30.05 in 9 mi NW 11.5 mph - -   Mostly Cloudy
10:00 AM 78.8 °F - 64.4 °F 61% 30.04 in 6.2 mi NW 11.5 mph - N/A   Scattered Clouds
11:00 AM 82.4 °F 83.4 °F 62.6 °F 51% 30.04 in 6.2 mi NW 13.8 mph - N/A   Scattered Clouds
12:00 PM 84.2 °F 85.0 °F 62.6 °F 48% 30.06 in 6.2 mi NW 10.4 mph - N/A   Scattered Clouds
1:00 PM 85 °F - 62 °F 35% 30.04 in 9 mi NW 10.4 mph - -   Mostly Cloudy
1:00 PM 84.2 °F 84.4 °F 60.8 °F 45% 30.06 in 6.2 mi NW 10.4 mph - N/A   Scattered Clouds
2:00 PM 86.0 °F 85.4 °F 59.0 °F 40% 30.04 in 6.2 mi NW 12.7 mph - N/A   Scattered Clouds
3:00 PM 84.2 °F 83.5 °F 57.2 °F 40% 30.04 in 6.2 mi NNW 11.5 mph - N/A   Scattered Clouds
4:00 PM 85 °F - 55 °F 26% 30.03 in 9 mi NNW 11.5 mph - -   Mostly Cloudy
4:00 PM 84.2 °F 83.0 °F 55.4 °F 37% 30.04 in 6.2 mi NNW 11.5 mph - N/A   Scattered Clouds
5:00 PM 84.2 °F 82.8 °F 53.6 °F 35% 30.04 in 6.2 mi Variable 11.5 mph - N/A   Scattered Clouds
7:00 PM 79 °F - 57 °F 36% 30.04 in 9 mi North 9.2 mph - -   Scattered Clouds
7:00 PM 78.8 °F - 57.2 °F 47% 30.06 in 6.2 mi North 9.2 mph - N/A   Partly Cloudy
8:00 PM 77.0 °F - 60.8 °F 57% 30.06 in 6.2 mi NNW 5.8 mph - N/A   Partly Cloudy
9:00 PM 75.2 °F - 62.6 °F 65% 30.09 in 6.2 mi NNW 3.5 mph - N/A   Partly Cloudy
10:00 PM 75 °F - 63 °F 57% 30.08 in 5 mi WNW 4.6 mph - -   Scattered Clouds
10:00 PM 75.2 °F - 62.6 °F 65% 30.09 in 5.0 mi WNW 4.6 mph - N/A   Partly Cloudy
11:00 PM 71.6 °F - 62.6 °F 73% 30.09 in 5.0 mi Variable 1.2 mph - N/A   Partly Cloudy